926  
ASUS42 KMLB 191011  
RWRMLB  
HOURLY WEATHER ROUNDUP AROUND FLORIDA  
NATIONAL WEATHER SERVICE OFFICE MELBOURNE FL  
600 AM EDT FRI JUL 19 2019  
 
CITY SKY/WX TMP DP RH WIND PRES REMARKS
 
MELBOURNE FAIR 77 74 90 SW3 30.06S  
FORT PIERCE FAIR 72 70 93 CALM 30.06S FOG  
ORLANDO INTL FAIR 75 72 90 CALM 30.07R  
DAYTONA BEACH FAIR 75 74 96 SW3 30.07R  
VERO BEACH FAIR 73 71 93 CALM 30.07R  

   
..ELSEWHERE ACROSS CENTRAL FLORIDA
 
 
 
CITY SKY/WX TMP DP RH WIND PRES REMARKS
 
PATRICK AFB FAIR 79 79 100 CALM 30.06S  
KSC CLEAR 76 65 67 S3 30.06R  
CAPE CANAVERAL CLEAR 75 53 44 CALM 30.05S  
ORLANDO EXEC FAIR 77 73 87 CALM 30.07R  
LEESBURG FAIR 77 73 87 S7 30.07R  
SANFORD FAIR 77 72 84 S6 30.06S  
DELAND FAIR 75 73 94 CALM 30.06S  
WINTER HAVEN FAIR 77 72 84 SE3 30.08R  
OKEECHOBEE FAIR 72 72 100 CALM 30.06S FOG  
TAMPA FAIR 78 73 84 SE3 30.05S  

   
..NORTHERN FLORIDA
 
 
 
CITY SKY/WX TMP DP RH WIND PRES REMARKS
 
PALM COAST CLEAR 73 72 94 CALM 30.07R  
ST AUGUSTINE FAIR 76 74 93 SW5 30.07R  
OCALA FAIR 73 72 96 CALM 30.07R  
GAINESVILLE FAIR 75 74 96 CALM 30.08S  
JACKSONVILLE FAIR 76 74 93 CALM 30.05R  
TALLAHASSEE MOCLDY 77 76 96 CALM 30.04S  

   
..ALONG THE SOUTHEAST COAST TO THE KEYS
 
 
 
CITY SKY/WX TMP DP RH WIND PRES REMARKS
 
STUART FAIR 77 73 88 CALM 30.07S  
WEST PALM BCH FAIR 80 73 79 SE5 30.06S  
MIAMI LGT RAIN 82 73 74 VRB5 30.05R  
KEY WEST FAIR 83 74 74 E12 30.03S  

   
..MARINE REPORTS
 
 
 
STATION/POSITION TIME TEMP WIND PRES WAVE SWELL
 
AIR SEA DIR/SP/G HT/PER HT/PER  
(UTC) (F) (DEG/KT/KT) (MB) (FT/S) (FT/S)  
ST AUGUSTINE FP 1000 77 78 240/ 5/ 6 1018.1R  
20NM E CAPE CANA 0950 82 83 200/ 8/ 8 1017.8R 2/ 9 2/ 9  
TRIDENT PIER 0930 80 84 190/ 5/ 6 1019.3S  
SEBASTIAN INLET 0945 78 77 240/ 2 1019.0S  
4NM E PORT CANAV 1000 81 N/A 1/ 9  
6NM NE FPR INLET 1000 82 N/A 1/ 8  
SETTLEMENT PT GB 1000 82 140/ 5/ 6 1018.0R  

 
 
 
CLICK HERE TO GO TO PREVIOUS BULLETINS.

The Nexlab FL Page Main Text Page